| time (UTC) | temp F | wind direction | speed MPH | gust MPH | rain 1hr in | rain 24hr in | rain mn in | humidity % | barometer mb |
| 20260507101600 | 48 | 225 | 0.0 | 0.0 | 0.02 | 0.12 | 0.05 | 12 | 1006.4 |
| 20260507100041 | 49 | 225 | 0.0 | 0.0 | 0.03 | 0.12 | 0.05 | 19 | 1006.5 |
| 20260507094539 | 49 | 225 | 0.0 | 0.0 | 0.02 | 0.11 | 0.04 | 25 | 1006.4 |
| 20260507093033 | 49 | 225 | 0.0 | 0.0 | 0.02 | 0.11 | 0.04 | 28 | 1006.6 |
| 20260507091548 | 50 | 225 | 0.0 | 0.0 | 0.01 | 0.10 | 0.03 | 25 | 1006.4 |
| 20260507090023 | 50 | 225 | 0.0 | 0.0 | 0.00 | 0.09 | 0.02 | 22 | 1006.7 |
| 20260507084523 | 51 | 225 | 0.0 | 0.0 | 0.00 | 0.09 | 0.02 | 25 | 1006.5 |
| 20260507083019 | 51 | 225 | 0.0 | 0.0 | 0.02 | 0.09 | 0.02 | 22 | 1006.4 |
| 20260507081510 | 52 | 225 | 0.0 | 0.0 | 0.02 | 0.09 | 0.02 | 21 | 1005.8 |
| 20260507080008 | 53 | 225 | 0.0 | 0.0 | 0.02 | 0.09 | 0.02 | 24 | 1006.2 |
| 20260507074508 | 53 | 225 | 0.0 | 0.0 | 0.02 | 0.09 | 0.02 | 39 | 1006.0 |
| 20260507073110 | 53 | 225 | 0.0 | 0.0 | 0.00 | 0.07 | 0.00 | 51 | 1006.0 |
| 20260507071558 | 53 | 225 | 0.0 | 0.0 | 0.00 | 0.07 | 0.00 | 54 | 1005.5 |
| 20260507070134 | 53 | 225 | 0.0 | 0.0 | 0.00 | 0.07 | 0.00 | 60 | 1005.7 |
| 20260507064549 | 53 | 225 | 0.0 | 0.0 | 0.00 | 0.07 | 0.00 | 62 | 1005.5 |
| 20260507063040 | 53 | 224 | 0.0 | 0.0 | 0.00 | 0.07 | 0.00 | 59 | 1005.4 |
| 20260507061536 | 54 | 220 | 0.0 | 0.0 | 0.00 | 0.07 | 0.00 | 19 | 1005.4 |
| 20260507060033 | 55 | 220 | 0.0 | 0.0 | 0.00 | 0.07 | 0.00 | 12 | 1005.4 |
| 20260507054527 | 55 | 220 | 0.0 | 0.0 | 0.00 | 0.07 | 0.00 | 14 | 1005.6 |
| 20260507053023 | 55 | 220 | 0.0 | 0.0 | 0.00 | 0.07 | 0.00 | 14 | 1005.8 |
| 20260507051518 | 56 | 219 | 0.0 | 0.0 | 0.00 | 0.07 | 0.00 | 12 | 1005.4 |
| 20260507050027 | 56 | 219 | 0.0 | 0.0 | 0.00 | 0.07 | 0.00 | 12 | 1005.5 |
| 20260507044525 | 57 | 219 | 0.0 | 0.0 | 0.00 | 0.07 | 0.00 | 1 | 1005.8 |
| 20260507043005 | 59 | 211 | 0.0 | 0.0 | 0.00 | 0.07 | 0.00 | 1 | 1005.4 |
| 20260507041605 | 59 | 210 | 0.0 | 0.0 | 0.01 | 0.07 | 0.00 | 1 | 1005.5 |
| 20260507040055 | 59 | 208 | 0.0 | 0.0 | 0.01 | 0.07 | 0.00 | 1 | 1005.7 |
| 20260507034552 | 59 | 208 | 0.0 | 0.0 | 0.01 | 0.07 | 0.07 | 1 | 1005.2 |
| 20260507033048 | 60 | 207 | 0.0 | 0.0 | 0.01 | 0.07 | 0.07 | 1 | 1005.3 |
| 20260507031543 | 60 | 202 | 0.0 | 0.0 | 0.00 | 0.06 | 0.06 | 1 | 1004.8 |
| 20260507030042 | 59 | 201 | 0.0 | 0.0 | 0.00 | 0.06 | 0.06 | 1 | 1004.7 |
| 20260507024535 | 59 | 201 | 0.0 | 0.0 | 0.00 | 0.06 | 0.06 | 1 | 1004.7 |
| 20260507023030 | 59 | 201 | 0.0 | 0.0 | 0.00 | 0.06 | 0.06 | 1 | 1004.8 |
| 20260507021525 | 59 | 191 | 0.0 | 0.0 | 0.00 | 0.06 | 0.06 | 1 | 1004.9 |
| 20260507020023 | 59 | 208 | 0.0 | 0.0 | 0.00 | 0.06 | 0.06 | 1 | 1004.7 |
| 20260507014517 | 59 | 209 | 0.0 | 0.0 | 0.00 | 0.06 | 0.06 | 1 | 1005.0 |
| 20260507013012 | 59 | 169 | 0.0 | 0.0 | 0.00 | 0.06 | 0.06 | 1 | 1004.9 |
| 20260507011508 | 59 | 167 | 0.0 | 0.0 | 0.00 | 0.06 | 0.06 | 1 | 1005.0 |
| 20260507010004 | 59 | 154 | 0.0 | 0.0 | 0.00 | 0.06 | 0.06 | 1 | 1005.0 |
| 20260507004559 | 59 | 103 | 0.0 | 0.0 | 0.00 | 0.06 | 0.06 | 1 | 1005.2 |
| 20260507003055 | 59 | 165 | 0.0 | 0.0 | 0.00 | 0.06 | 0.06 | 1 | 1005.0 |
| 20260507001553 | 59 | 150 | 0.0 | 0.0 | 0.01 | 0.06 | 0.06 | 1 | 1005.1 |
| 20260507000046 | 59 | 173 | 0.0 | 0.0 | 0.02 | 0.06 | 0.06 | 1 | 1004.8 |
| 20260506234541 | 60 | 153 | 0.0 | 0.0 | 0.02 | 0.06 | 0.06 | 1 | 1004.8 |
| 20260506233037 | 60 | 161 | 0.0 | 0.0 | 0.02 | 0.06 | 0.06 | 1 | 1004.7 |
| 20260506231533 | 60 | 171 | 0.0 | 0.0 | 0.01 | 0.05 | 0.05 | 1 | 1004.7 |
| 20260506230028 | 60 | 136 | 0.0 | 0.0 | 0.00 | 0.04 | 0.04 | 1 | 1004.8 |
| 20260506224524 | 60 | 167 | 0.0 | 0.0 | 0.00 | 0.04 | 0.04 | 1 | 1004.9 |
| 20260506223019 | 60 | 158 | 0.0 | 0.0 | 0.00 | 0.04 | 0.04 | 1 | 1004.9 |
| 20260506221514 | 61 | 192 | 0.0 | 0.0 | 0.00 | 0.04 | 0.04 | 1 | 1005.1 |
| 20260506220011 | 61 | 159 | 0.0 | 0.0 | 0.00 | 0.04 | 0.04 | 10 | 1005.1 |
| 20260506214507 | 61 | 170 | 0.0 | 0.0 | 0.00 | 0.04 | 0.04 | 22 | 1005.4 |
| 20260506213014 | 61 | 180 | 0.0 | 0.0 | 0.01 | 0.04 | 0.04 | 21 | 1005.6 |
| 20260506211509 | 61 | 181 | 0.0 | 0.0 | 0.02 | 0.04 | 0.04 | 22 | 1005.6 |
| 20260506210103 | 61 | 186 | 0.0 | 0.0 | 0.02 | 0.04 | 0.04 | 29 | 1005.6 |
| 20260506204601 | 62 | 186 | 0.0 | 0.0 | 0.03 | 0.04 | 0.04 | 38 | 1005.9 |
| 20260506203059 | 62 | 169 | 0.0 | 0.0 | 0.03 | 0.03 | 0.03 | 45 | 1005.9 |
| 20260506201617 | 63 | 114 | 0.0 | 0.0 | 0.02 | 0.02 | 0.02 | 58 | 1005.8 |
| 20260506200055 | 64 | 102 | 0.0 | 0.0 | 0.02 | 0.02 | 0.02 | 65 | 1005.6 |
| 20260506194555 | 65 | 111 | 0.0 | 0.0 | 0.01 | 0.01 | 0.01 | 72 | 1005.6 |
| 20260506193055 | 67 | 211 | 0.0 | 0.0 | 0.00 | 0.00 | 0.00 | 73 | 1006.0 |
| 20260506191552 | 68 | 175 | 0.0 | 0.0 | 0.00 | 0.00 | 0.00 | 69 | 1005.9 |
| 20260506190052 | 69 | 214 | 0.0 | 0.0 | 0.00 | 0.00 | 0.00 | 65 | 1005.9 |
| 20260506184554 | 70 | 261 | 0.0 | 0.0 | 0.00 | 0.00 | 0.00 | 62 | 1005.9 |
| 20260506183050 | 71 | 118 | 0.0 | 0.0 | 0.00 | 0.00 | 0.00 | 57 | 1005.9 |
| 20260506181551 | 72 | 226 | 0.0 | 0.0 | 0.00 | 0.00 | 0.00 | 57 | 1006.0 |
| 20260506180049 | 72 | 192 | 0.0 | 0.0 | 0.00 | 0.00 | 0.00 | 54 | 1006.1 |
| 20260506174547 | 73 | 222 | 0.0 | 0.0 | 0.00 | 0.00 | 0.00 | 55 | 1006.4 |
| 20260506173100 | 73 | 146 | 0.0 | 0.0 | 0.00 | 0.00 | 0.00 | 58 | 1006.5 |
| 20260506171553 | 73 | 143 | 0.0 | 0.0 | 0.00 | 0.00 | 0.00 | 59 | 1006.4 |
| 20260506170041 | 72 | 138 | 0.0 | 0.0 | 0.00 | 0.00 | 0.00 | 60 | 1006.6 |
| 20260506164540 | 72 | 170 | 0.0 | 0.0 | 0.00 | 0.00 | 0.00 | 59 | 1006.7 |
| 20260506163053 | 72 | 146 | 0.0 | 0.0 | 0.00 | 0.00 | 0.00 | 58 | 1006.9 |
| 20260506161542 | 72 | 88 | 0.0 | 0.0 | 0.00 | 0.00 | 0.00 | 58 | 1007.2 |
| 20260506160035 | 72 | 146 | 0.0 | 0.0 | 0.00 | 0.00 | 0.00 | 58 | 1007.4 |
| 20260506154537 | 72 | 170 | 0.0 | 0.0 | 0.00 | 0.00 | 0.00 | 57 | 1007.6 |
| 20260506153033 | 72 | 161 | 0.0 | 0.0 | 0.00 | 0.00 | 0.00 | 58 | 1007.9 |
| 20260506151528 | 72 | 182 | 0.0 | 0.0 | 0.00 | 0.00 | 0.00 | 59 | 1007.9 |
| 20260506150026 | 71 | 96 | 0.0 | 0.0 | 0.00 | 0.00 | 0.00 | 61 | 1008.2 |
| 20260506144523 | 70 | 99 | 0.0 | 0.0 | 0.00 | 0.00 | 0.00 | 63 | 1008.1 |
| 20260506143020 | 69 | 174 | 0.0 | 0.0 | 0.00 | 0.00 | 0.00 | 65 | 1008.1 |
| 20260506141516 | 68 | 186 | 0.0 | 0.0 | 0.00 | 0.00 | 0.00 | 68 | 1008.0 |
| 20260506140013 | 67 | 175 | 0.0 | 0.0 | 0.00 | 0.00 | 0.00 | 69 | 1008.2 |
| 20260506134509 | 66 | 157 | 0.0 | 0.0 | 0.00 | 0.00 | 0.00 | 71 | 1008.2 |
| 20260506133008 | 66 | 163 | 0.0 | 0.0 | 0.00 | 0.00 | 0.00 | 71 | 1008.7 |
| 20260506131506 | 65 | 187 | 0.0 | 0.0 | 0.00 | 0.00 | 0.00 | 72 | 1008.8 |
| 20260506130006 | 65 | 139 | 0.0 | 0.0 | 0.00 | 0.00 | 0.00 | 73 | 1008.7 |
| 20260506124503 | 64 | 129 | 0.0 | 0.0 | 0.00 | 0.00 | 0.00 | 73 | 1008.6 |
| 20260506123002 | 63 | 167 | 0.0 | 0.0 | 0.00 | 0.00 | 0.00 | 74 | 1009.1 |
| 20260506121500 | 63 | 107 | 0.0 | 0.0 | 0.00 | 0.00 | 0.00 | 73 | 1008.7 |
| 20260506120111 | 62 | 167 | 0.0 | 0.0 | 0.00 | 0.00 | 0.00 | 73 | 1009.0 |
| 20260506114623 | 62 | 150 | 0.0 | 0.0 | 0.00 | 0.00 | 0.00 | 73 | 1009.1 |
| 20260506113100 | 62 | 146 | 0.0 | 0.0 | 0.00 | 0.00 | 0.00 | 72 | 1009.4 |
| 20260506111558 | 61 | 141 | 0.0 | 0.0 | 0.00 | 0.00 | 0.00 | 70 | 1009.1 |
| 20260506110058 | 60 | 160 | 0.0 | 0.0 | 0.00 | 0.00 | 0.00 | 68 | 1009.1 |
| 20260506104557 | 60 | 162 | 0.0 | 0.0 | 0.00 | 0.00 | 0.00 | 70 | 1009.2 |
| 20260506103056 | 60 | 161 | 0.0 | 0.0 | 0.00 | 0.00 | 0.00 | 70 | 1009.4 |